Regional Weather Roundup
Issued by NWS

Home | Current Version | Previous Version | Graphics & Text | Print | Product List | Glossary On
Versions: 1 2 3 4 5 6 7 8 9 10 11 12 13 14 15 16 17 18 19 20 21 22 23 24 25 26 27 28 29 30 31 32 33 34 35 36 37 38 39 40 41 42 43 44 45 46 47 48 49 50
000
ASUS45 KBOI 031510
RWRID

IDAHO REGIONAL WEATHER ROUNDUP
NATIONAL WEATHER SERVICE BOISE ID
900 AM MDT FRI JUL 03 2015

NOTE: "FAIR" INDICATES FEW OR NO CLOUDS BELOW 12000 FEET
WITH NO SIGNIFICANT WEATHER AND/OR OBSTRUCTIONS TO VISIBILITY

IDZ012-014-031600-
SOUTHWEST IDAHO


CITY           SKY/WX    TMP DP  RH WIND       PRES   REMARKS
BOISE          SUNNY     79  45  29 SW3       29.94R
CALDWELL       SUNNY     79  43  27 NW5       29.94S
MOUNTAIN HOME  SUNNY     85  39  19 NW14      29.93S
$$

IDZ016-017-031600-
SOUTHCENTRAL IDAHO


CITY           SKY/WX    TMP DP  RH WIND       PRES   REMARKS
BURLEY         SUNNY     77  48  35 W5        30.02S
JEROME         SUNNY     75  48  38 S5        30.03R
TWIN FALLS     SUNNY     86  40  19 SW13      30.01R
$$

IDZ019>023-031600-
SOUTHEAST IDAHO


CITY           SKY/WX    TMP DP  RH WIND       PRES   REMARKS
IDAHO FALLS    SUNNY     69  49  48 S7        30.07S
POCATELLO      SUNNY     74  53  48 W10       30.07R
REXBURG        SUNNY     68  49  50 NE3       30.08S
$$

IDZ006-010-011-018-031-032-031600-
CENTRAL IDAHO MOUNTAINS


CITY           SKY/WX    TMP DP  RH WIND       PRES   REMARKS
MCCALL         SUNNY     67  46  47 SE3       30.10R
HAILEY         MOSUNNY   70  43  37 NW12      30.13R
STANLEY          N/A     57  41  55 CALM      30.23F
SALMON         SUNNY     64  45  48 CALM      30.05F
CHALLIS        PTSUNNY   69  47  45 N6        30.11S
$$

IDZ002-004-006-007-026-031600-
NORTHERN IDAHO


CITY           SKY/WX    TMP DP  RH WIND       PRES   REMARKS
LEWISTON       SUNNY     76  51  41 N5        29.91S
LOWELL           N/A     64  51  62 CALM      29.99F
COEUR D`ALENE  SUNNY     75  54  46 NE7       29.94S
MULLAN PASS    SUNNY     70  39  32 N3        30.17S
$$


USA.gov is the U.S. government's official web portal to all federal, state and local government web resources and services.